Stations météo

réclame
Mon MeteoGroup
Socoa, France (7600): Température de l'air & dewpoint: 18.05.2019 05:00:00 - 24.05.2019 05:00:00 (CEST)Socoa, France (7600): Vitesse du vent & gusts: 18.05.2019 05:00:00 - 24.05.2019 05:00:00 (CEST)Socoa, France (7600): Direction du vent: 18.05.2019 05:00:00 - 24.05.2019 05:00:00 (CEST)Socoa, France (7600): reduced air pressure: 18.05.2019 05:00:00 - 24.05.2019 05:00:00 (CEST)Socoa, France (7600): visibility: 18.05.2019 05:00:00 - 24.05.2019 05:00:00 (CEST)Socoa, France (7600): Quantités de précipitations: 18.05.2019 05:00:00 - 24.05.2019 05:00:00 (CEST)
Date & Time tt [°C] td [°C] ff [km/h] ff [knt] fx [km/h] fx [knt] dd ppp [hPa] vv [km] rr [mm]
24.05.2019 05:00:00 14,7 13,4 42 23 58 32 W 1019,2 - 0,2
24.05.2019 04:00:00 15,0 13,7 32 18 50 27 W 1019,3 - 0,2
24.05.2019 03:00:00 14,7 13,6 36 20 48 26 W 1019,8 - 0,4
24.05.2019 02:00:00 15,1 13,6 31 17 41 22 W 1020,3 - 0,2
24.05.2019 01:00:00 15,1 13,6 28 15 41 22 W 1020,6 - 0,0
24.05.2019 00:00:00 15,4 14,1 22 12 34 18 W 1020,7 - 2,6
23.05.2019 23:00:00 15,6 13,6 24 13 38 20 W 1020,8 - 0,0
23.05.2019 22:00:00 15,6 13,3 27 14 40 22 W 1020,7 - 0,0
23.05.2019 21:00:00 15,7 13,2 27 15 36 20 W 1020,3 - 0,0
23.05.2019 20:00:00 15,9 13,0 24 13 37 20 W 1019,8 8 0,0
23.05.2019 19:00:00 16,3 12,8 26 14 35 19 W 1019,5 - 0,0
23.05.2019 18:00:00 16,4 13,1 19 10 36 19 WSW 1019,4 - 0,2
23.05.2019 17:00:00 17,4 13,1 21 12 39 21 W 1019,0 12 0,0
23.05.2019 16:00:00 18,6 13,7 28 15 37 20 W 1019,0 - 0,0
23.05.2019 15:00:00 18,2 13,9 29 16 40 22 W 1018,9 - 0,0
23.05.2019 14:00:00 18,0 13,9 32 18 44 24 W 1019,0 10 0,0
23.05.2019 13:00:00 17,5 13,6 35 19 47 25 W 1019,2 - 0,0
23.05.2019 12:00:00 18,9 14,2 14 8 19 11 WNW 1018,8 - 0,0
23.05.2019 11:00:00 17,2 13,9 5 3 7 4 NNW 1018,3 14 0,0
23.05.2019 10:00:00 17,0 12,9 3 2 11 6 E 1018,0 - 0,0
23.05.2019 09:00:00 15,1 13,1 3 2 8 5 ESE 1017,8 - 0,0
23.05.2019 08:00:00 13,7 12,8 0 0 10 5 N 1017,5 15 0,0
23.05.2019 07:00:00 11,5 10,4 10 5 13 7 S 1017,2 - 0,0
23.05.2019 06:00:00 11,7 10,4 8 4 13 7 SW 1017,0 - 0,0
23.05.2019 05:00:00 12,1 11,0 10 5 12 7 S 1017,1 - 0,0
23.05.2019 04:00:00 12,2 10,9 5 3 8 4 SSW 1017,3 - 0,0
23.05.2019 03:00:00 12,7 11,3 5 3 11 6 SSE 1017,4 - 0,0
23.05.2019 02:00:00 13,4 12,0 9 5 15 8 WSW 1017,9 - 0,0
23.05.2019 01:00:00 13,4 11,6 6 4 12 6 SW 1017,9 - 0,0
23.05.2019 00:00:00 14,1 12,0 5 3 12 7 W 1018,0 - 0,0
22.05.2019 23:00:00 15,3 12,8 8 5 14 7 WSW 1018,1 21 0,0
22.05.2019 22:00:00 16,5 13,6 6 3 11 6 WNW 1017,8 - 0,0
22.05.2019 21:00:00 18,0 13,5 7 4 17 9 NE 1017,7 - 0,0
22.05.2019 20:00:00 19,5 14,1 10 5 21 11 NNE 1017,6 25 0,0
22.05.2019 19:00:00 20,3 14,6 10 6 18 10 NNE 1017,7 - 0,0
22.05.2019 18:00:00 20,0 13,9 13 7 18 10 NNE 1018,2 - 0,0
22.05.2019 17:00:00 21,1 15,0 12 6 19 11 NNE 1018,5 16 0,0
22.05.2019 16:00:00 20,7 15,0 14 7 25 13 NNE 1018,8 - 0,0
22.05.2019 15:00:00 19,0 14,3 17 9 24 13 NNE 1019,3 - 0,0
22.05.2019 14:00:00 18,1 13,4 18 10 23 13 N 1019,7 16 0,0
22.05.2019 13:00:00 17,7 13,0 16 9 24 13 N 1020,0 - 0,0
22.05.2019 12:00:00 18,6 13,2 11 6 17 9 N 1020,5 - 0,0
22.05.2019 11:00:00 17,6 12,7 9 5 11 6 NW 1020,6 22 0,0
22.05.2019 10:00:00 16,4 12,4 7 4 12 6 SW 1020,7 - 0,0
22.05.2019 09:00:00 14,6 11,4 6 3 13 7 WSW 1020,9 - 0,0
22.05.2019 08:00:00 13,0 10,4 9 5 13 7 SSW 1020,8 15 0,0
22.05.2019 07:00:00 12,5 10,6 9 5 17 9 SSW 1020,4 - 0,0
22.05.2019 06:00:00 12,0 10,2 10 5 17 9 WSW 1020,4 - 0,0
22.05.2019 05:00:00 11,4 9,8 10 6 13 7 SSW 1020,3 18 0,0
22.05.2019 04:00:00 11,2 9,6 13 7 16 9 SSW 1020,4 - 0,0
22.05.2019 03:00:00 11,3 9,6 11 6 18 10 SW 1020,5 - 0,0
22.05.2019 02:00:00 11,8 9,7 11 6 13 7 SW 1020,6 18 0,0
22.05.2019 01:00:00 12,7 10,4 9 5 11 6 S 1020,9 - 0,0
22.05.2019 00:00:00 12,9 10,4 6 4 8 5 S 1021,1 - 0,0
21.05.2019 23:00:00 13,9 10,9 4 2 11 6 SSW 1021,0 22 0,0
21.05.2019 22:00:00 14,8 11,2 8 5 16 9 N 1020,5 - 0,0
21.05.2019 21:00:00 15,5 10,3 11 6 16 9 N 1020,0 - 0,0
21.05.2019 20:00:00 17,1 10,2 10 5 17 9 N 1019,7 22 0,0
21.05.2019 19:00:00 18,1 10,7 11 6 20 11 NNW 1019,4 - 0,0
21.05.2019 18:00:00 17,9 10,3 14 7 23 12 N 1019,7 - 0,0
21.05.2019 17:00:00 18,2 10,8 13 7 21 11 N 1019,7 24 0,0
21.05.2019 16:00:00 18,3 11,1 14 8 23 12 NNW 1019,7 - 0,0
21.05.2019 15:00:00 18,0 11,5 16 8 26 14 NNW 1019,9 - 0,0
21.05.2019 14:00:00 17,6 10,7 18 10 29 16 N 1020,0 20 0,0
21.05.2019 13:00:00 17,8 10,9 16 9 26 14 NNW 1020,0 - 0,0
21.05.2019 12:00:00 18,1 11,2 13 7 18 10 NNW 1019,7 - 0,0
21.05.2019 11:00:00 16,9 9,6 5 3 19 10 E 1019,4 15 0,0
21.05.2019 10:00:00 15,9 9,1 15 8 21 11 ESE 1019,4 - 0,0
21.05.2019 09:00:00 13,5 11,4 5 3 11 6 SE 1019,2 - 0,0
21.05.2019 08:00:00 11,1 9,8 6 3 8 4 S 1019,0 - 0,0
21.05.2019 07:00:00 10,7 9,5 5 3 6 3 ESE 1018,5 - 0,0
21.05.2019 06:00:00 10,6 9,5 6 4 10 6 S 1018,1 - 0,0
21.05.2019 05:00:00 10,1 8,9 7 4 11 6 S 1017,8 20 0,2
21.05.2019 04:00:00 10,0 8,8 9 5 11 6 S 1017,8 - 0,0
21.05.2019 03:00:00 10,0 8,4 8 4 11 6 S 1017,9 - 0,0
21.05.2019 02:00:00 10,7 9,1 6 3 11 6 S 1018,2 20 0,0
21.05.2019 01:00:00 10,5 8,9 7 4 13 7 S 1018,2 - 0,0
21.05.2019 00:00:00 11,1 9,2 10 5 12 6 S 1018,0 - 0,0
20.05.2019 23:00:00 12,1 9,8 3 2 12 6 SE 1017,9 12 0,0
20.05.2019 22:00:00 13,4 10,4 10 6 16 9 ENE 1017,1 - 0,0
20.05.2019 21:00:00 15,1 9,7 10 5 13 7 NNE 1016,8 - 0,0
20.05.2019 20:00:00 16,0 10,3 8 5 15 8 N 1016,6 15 0,0
20.05.2019 19:00:00 16,6 10,9 11 6 20 11 N 1016,6 - 0,0
20.05.2019 18:00:00 17,2 11,2 14 8 21 11 NNW 1016,6 - 0,0
20.05.2019 17:00:00 17,1 11,8 18 10 25 14 NW 1016,4 15 0,0
20.05.2019 16:00:00 17,1 11,6 19 10 30 16 NW 1016,7 - 0,0
20.05.2019 15:00:00 17,2 11,7 22 12 29 15 W 1016,8 - 0,0
20.05.2019 14:00:00 16,7 11,0 22 12 29 16 W 1016,8 15 0,0
20.05.2019 13:00:00 15,8 10,8 20 11 31 17 W 1016,9 - 0,0
20.05.2019 12:00:00 16,5 10,8 21 11 37 20 W 1016,8 - 0,0
20.05.2019 11:00:00 14,9 9,9 18 10 30 16 WSW 1016,6 10 0,0
20.05.2019 10:00:00 13,4 9,1 17 9 29 16 WSW 1016,6 - 0,0
20.05.2019 09:00:00 12,2 8,3 17 9 28 15 SW 1016,2 - 0,0
20.05.2019 08:00:00 11,7 8,2 18 10 32 18 SW 1015,6 - 0,0
20.05.2019 07:00:00 11,3 8,3 20 11 31 17 SW 1015,2 - 0,0
20.05.2019 06:00:00 11,4 8,1 18 10 29 16 SW 1015,1 - 0,0
20.05.2019 05:00:00 11,4 8,1 19 10 31 17 SW 1015,2 18 0,0
20.05.2019 04:00:00 11,2 8,4 18 10 31 17 SW 1015,3 - 0,0
20.05.2019 03:00:00 11,7 8,9 19 10 29 16 SW 1015,4 - 0,0
20.05.2019 02:00:00 12,4 9,2 14 8 36 19 SSW 1016,1 18 0,0
20.05.2019 01:00:00 13,5 9,9 28 15 38 21 W 1016,4 - 0,0
20.05.2019 00:00:00 13,5 10,1 32 18 41 22 W 1016,4 - 0,0
19.05.2019 23:00:00 13,6 10,4 32 18 46 25 WNW 1016,3 - 0,0
19.05.2019 22:00:00 13,5 10,5 34 18 53 29 WNW 1015,7 - 0,2
19.05.2019 21:00:00 13,6 10,8 34 18 49 27 WNW 1015,3 - 0,0
19.05.2019 20:00:00 13,5 10,8 36 19 51 27 WNW 1014,8 12 21,1
19.05.2019 19:00:00 12,8 11,0 29 16 57 31 WSW 1014,6 - 3,0
19.05.2019 18:00:00 13,2 11,3 43 23 61 33 W 1014,5 - 1,6
19.05.2019 17:00:00 13,3 11,9 45 24 65 35 W 1014,5 8 1,4
19.05.2019 16:00:00 13,3 11,7 42 23 67 36 W 1014,3 - 1,4
19.05.2019 15:00:00 12,5 11,2 50 27 73 39 W 1013,9 - 1,4
19.05.2019 14:00:00 12,7 11,4 37 20 61 33 WSW 1013,5 8 1,5
19.05.2019 13:00:00 12,6 11,0 38 21 64 35 W 1013,2 - 1,6
19.05.2019 12:00:00 12,9 11,5 41 22 64 35 W 1012,7 - 1,6
19.05.2019 11:00:00 13,7 11,2 45 25 61 33 W 1012,2 - 1,8
19.05.2019 10:00:00 13,5 11,2 39 21 50 27 W 1012,0 - 2,0
19.05.2019 09:00:00 12,2 11,1 11 6 25 14 WSW 1011,8 - 2,0
19.05.2019 08:00:00 11,4 10,0 8 5 42 23 SSW 1011,7 - 2,3
19.05.2019 07:00:00 12,3 10,4 26 14 44 24 WNW 1011,3 - 2,6
19.05.2019 06:00:00 12,4 10,1 39 21 49 26 W 1010,9 - 3,2
19.05.2019 05:00:00 11,6 9,8 14 8 45 25 W 1011,2 8 2,2
19.05.2019 04:00:00 12,3 10,9 30 16 51 28 WNW 1011,0 - 2,2
19.05.2019 03:00:00 12,6 11,0 40 22 65 35 WNW 1011,0 - 1,9
19.05.2019 02:00:00 12,6 11,3 51 27 65 35 W 1011,0 8 1,2
19.05.2019 01:00:00 12,5 11,2 55 30 89 48 W 1011,4 - 1,2
19.05.2019 00:00:00 12,4 11,1 52 28 77 41 W 1011,5 - 1,0
18.05.2019 23:00:00 12,4 11,3 54 29 71 38 W 1011,6 - 0,8
18.05.2019 22:00:00 10,5 9,1 35 19 61 33 WSW 1011,5 - 0,6
18.05.2019 21:00:00 10,0 8,4 29 16 46 25 SW 1011,5 - 0,4
18.05.2019 20:00:00 10,3 8,4 26 14 46 25 SW 1011,6 - 0,6
18.05.2019 19:00:00 10,6 8,7 27 15 48 26 SW 1011,7 - 0,4
18.05.2019 18:00:00 11,1 9,4 16 9 37 20 SW 1012,1 - 0,4
18.05.2019 17:00:00 10,8 8,7 20 11 39 21 WSW 1011,9 8 0,2
18.05.2019 16:00:00 11,6 9,5 19 10 34 18 SW 1011,8 - 0,4
18.05.2019 15:00:00 12,1 9,5 18 10 48 26 SW 1011,7 - 0,4
18.05.2019 14:00:00 13,5 8,3 32 17 57 31 WSW 1011,2 15 0,2
18.05.2019 13:00:00 13,1 8,6 34 18 55 30 WSW 1010,9 - 0,4
18.05.2019 12:00:00 12,2 8,5 25 14 44 24 WSW 1010,9 - 0,2
18.05.2019 11:00:00 10,9 8,5 23 12 42 23 SW 1010,7 18 0,2
18.05.2019 10:00:00 11,2 8,8 23 12 37 20 SW 1010,6 - 0,2
18.05.2019 09:00:00 10,1 6,6 19 10 34 18 SW 1010,5 - 0,2
18.05.2019 08:00:00 10,6 6,7 23 12 38 21 SW 1010,5 18 0,2
18.05.2019 07:00:00 10,3 6,1 21 11 44 24 SW 1010,2 - 0,4
18.05.2019 06:00:00 10,5 5,7 23 12 47 25 SW 1010,2 - 0,4
18.05.2019 05:00:00 10,5 5,9 27 15 40 22 SW 1010,5 18 0,4

tt = Température de l'air
td = dewpoint
ff = Vitesse du vent
fx = gusts
dd = Direction du vent
ppp = reduced air pressure
vv = visibility
rr = Quantités de précipitations

stations d'obs. à proximité